Location: Newark
(41.6500°N, 71.4833°W)
Time: 15:48:44
(UTC+00:00)

Transit 2A - All Passes

Search period start: 26 January 2020 00:00
Search period end: 05 February 2020 00:00
Orbit: 601 x 958 km, 66.7° (Epoch: 25 January)

Date Brightness Start Highest point End Pass type
(mag) Time Alt. Az. Time Alt. Az. Time Alt. Az.
26 Jan - 00:34:30 10° SSW 00:38:55 77° WNW 00:43:16 10° NNE visible
26 Jan - 02:21:46 10° NW 02:22:50 11° NW 02:23:54 10° NNW night (unlit)
26 Jan - 07:38:11 10° N 07:40:41 14° NE 07:43:17 10° ENE visible
26 Jan - 09:19:36 10° NNW 09:24:27 85° ENE 09:29:48 10° SSE visible
26 Jan - 11:05:16 10° W 11:07:03 12° WSW 11:08:54 10° SW visible
27 Jan - 00:00:25 10° SSW 00:04:49 67° ESE 00:09:08 10° NE visible
27 Jan - 01:45:51 10° W 01:48:24 15° NW 01:50:58 10° N visible
27 Jan - 07:05:49 10° NNE 07:06:14 10° NE 07:06:40 10° NE night (unlit)
27 Jan - 08:45:33 10° NNW 08:50:18 58° ENE 08:55:32 10° SE visible
27 Jan - 10:29:44 10° WNW 10:33:07 18° WSW 10:36:41 10° SSW visible
27 Jan - 23:26:36 10° S 23:30:46 42° ESE 23:34:52 10° NE visible
28 Jan - 01:10:42 10° W 01:14:03 21° NW 01:17:24 10° N visible
28 Jan - 08:11:35 10° NNW 08:16:07 40° NE 08:21:04 10° SE visible
28 Jan - 09:54:58 10° NW 09:59:08 27° WSW 10:03:36 10° SSW visible
28 Jan - 22:53:02 10° SSE 22:56:45 27° ESE 23:00:24 10° NE visible
29 Jan - 00:35:53 10° WSW 00:39:46 30° NW 00:43:38 10° N visible
29 Jan - 07:37:42 10° N 07:41:52 28° NE 07:46:22 10° ESE visible
29 Jan - 09:20:30 10° NW 09:25:06 40° WSW 09:30:07 10° S visible
29 Jan - 22:19:55 10° SSE 22:22:48 17° ESE 22:25:38 10° ENE visible
30 Jan - 00:01:19 10° SW 00:05:32 45° NW 00:09:44 10° NNE visible
30 Jan - 07:03:57 10° N 07:07:35 21° NE 07:11:26 10° E night (unlit)
30 Jan - 08:46:12 10° NW 08:51:02 60° WSW 08:56:21 10° SSE visible
30 Jan - 21:47:58 10° ESE 21:48:52 11° ESE 21:49:47 10° E daylight
30 Jan - 23:26:59 10° SW 23:31:22 70° WNW 23:35:43 10° NNE visible
31 Jan - 06:30:24 10° N 06:33:13 15° NE 06:36:09 10° E night (unlit)
31 Jan - 08:12:01 10° NNW 08:16:55 88° WSW 08:22:21 10° SSE night (unlit)
31 Jan - 09:58:13 10° W 09:59:30 11° WSW 10:00:48 10° WSW night (unlit)
31 Jan - 22:52:52 10° SSW 22:57:15 74° ESE 23:01:36 10° NNE visible
01 Feb - 00:38:35 10° WNW 00:40:55 14° NW 00:43:15 10° N visible
01 Feb - 05:57:23 10° NNE 05:58:47 11° NE 06:00:13 10° NE night (unlit)
01 Feb - 07:37:57 10° NNW 07:42:47 64° ENE 07:48:08 10° SE night (unlit)
01 Feb - 09:22:21 10° WNW 09:25:34 17° WSW 09:28:58 10° SSW night (unlit)
01 Feb - 22:18:59 10° S 22:23:11 46° ESE 22:27:21 10° NE daylight
02 Feb - 00:03:21 10° W 00:06:33 20° NW 00:09:46 10° N visible
02 Feb - 07:03:57 10° NNW 07:08:36 44° NE 07:13:42 10° SE night (unlit)
02 Feb - 08:47:31 10° NW 08:51:35 25° WSW 08:55:59 10° SSW night (unlit)
02 Feb - 21:45:22 10° S 21:49:11 29° ESE 21:52:56 10° NE daylight
02 Feb - 23:28:28 10° WSW 23:32:14 28° NW 23:36:01 10° N visible
03 Feb - 06:30:03 10° N 06:34:23 31° NE 06:39:03 10° ESE night (unlit)
03 Feb - 08:12:59 10° NW 08:17:33 37° WSW 08:22:34 10° S night (unlit)
03 Feb - 21:12:08 10° SSE 21:15:12 19° ESE 21:18:15 10° ENE daylight
03 Feb - 22:53:51 10° SW 22:58:00 41° NW 23:02:08 10° NNE visible
04 Feb - 05:56:16 10° N 06:00:06 22° NE 06:04:11 10° E night (unlit)
04 Feb - 07:38:39 10° NW 07:43:30 55° WSW 07:48:51 10° SSE night (unlit)
04 Feb - 20:39:43 10° SE 20:41:17 12° ESE 20:42:50 10° E daylight
04 Feb - 22:19:29 10° SW 22:23:49 64° WNW 22:28:09 10° NNE daylight
